Theta_e
330 327 324 323 322 319 323 325 323 326 329 331 332 333 332 333 331 329 335 336 336 334 333 328 327 331 331 333 332 331 329 327 326 318 318 321 320 321 317 317 324 319 316 313 315 316 316 319 319
329 325 321 322 321 324 323 323 325 326 332 333 333 333 332 333 335 336 337 335 334 333 329 320 319 326 327 331 331 330 327 329 327 321 327 324 315 322 316 315 318 315 312 312 313 313 315 316 315
325 322 322 319 318 322 323 326 327 329 332 330 334 334 333 334 335 336 337 335 332 332 324 318 315 317 322 327 329 330 326 329 327 319 312 311 314 318 315 313 312 312 311 311 312 313 314 314 313
323 321 320 319 323 321 325 326 327 325 328 330 333 332 334 335 335 335 337 335 333 331 325 315 314 315 317 324 330 329 324 327 326 314 311 311 312 314 313 313 313 312 312 311 312 313 313 313 314
322 321 319 320 322 319 323 326 326 325 327 330 331 332 334 335 335 336 335 335 334 329 319 315 314 314 322 328 327 326 324 325 319 311 310 311 312 313 313 313 313 313 313 313 313 314 314 314 315
321 320 321 325 321 319 322 327 325 325 327 330 332 333 334 334 334 335 334 334 333 328 318 317 318 314 322 326 326 325 324 320 311 310 310 311 312 313 313 313 313 313 313 314 314 315 315 315 316
320 317 320 321 320 318 319 323 325 325 326 327 330 329 332 334 334 334 334 334 334 332 319 319 320 320 323 328 329 327 325 323 314 310 311 312 313 314 314 313 313 313 313 313 314 315 316 317 316
320 320 322 320 320 320 321 322 324 327 326 331 331 327 329 333 333 333 333 334 334 334 320 321 325 322 323 325 329 328 326 316 314 312 311 313 314 314 314 314 313 313 314 314 315 315 317 317 317
321 318 322 324 320 321 322 321 323 326 327 327 329 327 329 330 332 333 333 335 334 333 325 320 326 326 321 323 329 329 326 321 316 312 312 313 314 315 315 315 314 314 314 315 315 316 316 316 317
320 317 321 321 319 320 322 322 325 326 327 328 328 329 330 329 331 332 332 334 333 332 331 321 323 326 326 321 320 324 326 324 316 313 313 314 315 316 316 316 316 315 315 316 316 316 317 317 317
321 320 320 319 317 321 320 320 322 324 324 324 324 326 329 329 331 332 332 333 332 332 331 329 322 322 323 322 319 316 322 325 318 313 314 315 316 316 317 316 316 316 316 317 316 317 317 318 318
321 320 322 320 318 318 319 321 320 323 323 323 324 323 325 327 329 331 332 332 331 330 331 331 328 323 319 319 319 316 316 320 318 315 315 316 317 318 317 317 317 317 318 317 317 317 318 319 318
319 320 321 322 323 320 317 318 318 320 321 322 324 325 325 325 327 329 332 332 331 330 330 331 330 327 323 316 315 316 314 314 315 314 314 318 318 318 318 318 318 318 319 319 319 319 319 319 319
323 321 322 321 317 316 315 316 316 318 318 320 320 322 325 324 324 328 331 332 331 330 330 331 331 330 327 325 316 313 314 313 313 314 314 316 317 317 317 317 317 318 318 319 319 320 320 319 320
326 322 319 318 316 316 317 316 315 318 318 319 320 323 326 326 326 325 326 330 331 331 331 331 331 331 329 329 328 317 312 312 312 313 314 315 315 316 316 317 318 319 320 320 321 321 320 320 319
322 321 325 319 316 316 317 319 318 318 318 320 320 323 325 326 326 326 327 327 331 332 331 331 331 330 331 330 330 327 315 313 313 314 314 315 315 316 317 318 318 319 320 320 321 321 320 319 318
316 321 322 322 316 316 316 318 318 321 318 319 321 322 324 326 327 326 326 325 326 330 331 331 331 330 330 330 330 329 324 317 316 315 315 316 316 317 318 318 318 320 320 321 321 321 321 319 318
319 321 321 323 319 316 316 314 315 320 318 319 320 322 325 325 324 324 326 325 323 328 331 331 331 330 329 330 330 330 328 325 320 318 317 317 317 317 318 318 319 320 321 321 322 322 321 319 318
318 320 321 319 319 317 317 316 315 317 316 317 318 319 322 325 321 324 325 326 323 328 330 330 329 328 326 327 329 330 329 326 323 319 317 317 318 318 319 319 319 320 321 322 322 322 321 319 318
321 322 321 320 319 318 319 319 315 315 317 318 320 320 318 319 321 321 324 326 325 323 328 330 331 330 329 328 327 327 327 326 325 320 318 317 317 318 319 319 319 320 321 322 322 322 320 319 318
320 321 321 322 317 316 317 319 318 315 319 320 321 322 322 322 320 319 320 323 326 324 324 327 329 331 331 331 329 326 328 328 326 324 318 316 317 318 318 319 319 320 322 322 321 320 319 319 319
322 319 322 323 320 323 317 322 321 318 318 316 319 321 323 323 323 323 320 319 323 324 324 324 327 329 331 331 331 330 326 326 326 325 321 314 316 317 318 318 318 320 323 323 321 321 319 319 320
320 320 322 321 319 320 322 325 320 317 318 318 319 320 322 323 324 323 322 321 320 323 324 323 325 327 328 331 331 331 331 329 326 326 325 318 315 315 316 318 318 320 323 324 323 322 321 320 320
317 318 318 317 319 324 321 322 319 319 318 317 318 322 323 323 323 323 324 322 322 322 324 324 325 326 328 329 330 331 331 330 329 327 325 321 315 316 317 317 318 319 322 324 325 323 322 321 321
319 321 323 325 324 321 315 318 320 316 316 317 319 321 322 322 322 323 324 322 322 322 321 324 325 325 325 327 328 328 330 329 327 325 323 320 317 316 316 317 318 318 320 323 325 325 323 322 322
320 320 317 320 320 317 314 320 318 316 318 319 320 320 321 321 322 322 323 324 322 321 320 320 324 324 325 326 326 326 328 328 328 327 326 327 325 323 322 320 319 319 319 321 324 326 325 323 323
320 321 314 312 299 311 314 313 312 311 312 314 315 319 320 320 320 320 322 323 324 322 320 319 320 322 323 324 325 325 326 327 327 327 328 329 329 328 328 327 326 324 323 323 324 325 326 325 324
319 318 320 314 313 315 314 313 315 313 316 315 312 314 318 320 319 317 316 317 319 321 322 319 317 318 319 322 325 325 325 326 327 328 328 328 329 329 329 329 329 328 328 327 326 326 325 325 325
318 321 318 317 312 315 313 313 309 314 314 314 314 315 317 319 320 318 315 316 316 316 318 319 318 317 317 319 322 325 326 326 327 328 329 329 330 330 329 328 327 326 326 325 327 325 324 325 324
318 319 319 321 318 312 311 315 309 309 310 312 314 316 318 318 318 316 314 313 313 314 315 316 317 317 317 319 321 322 324 325 326 326 326 325 328 327 326 326 325 325 325 325 326 326 324 325 325
Wind_Speed
7 8 7 4 4 5 1 1 2 3 2 2 6 5 7 5 2 3 14 10 12 18 13 10 12 12 10 11 10 8 7 7 5 10 11 15 15 15 14 16 16 15 15 15 15 14 15 16 18
6 6 5 2 4 3 3 3 4 1 12 15 11 8 5 2 3 11 16 13 14 15 11 10 12 12 11 11 10 8 7 8 4 7 13 14 14 15 16 15 15 15 15 15 15 13 14 14 15
6 6 3 4 3 4 4 3 4 7 14 1 5 8 3 5 9 17 11 16 14 14 10 11 11 12 12 11 11 9 8 7 6 8 11 11 13 14 15 15 15 15 15 15 14 13 13 13 14
3 2 4 4 3 3 5 5 6 9 5 2 11 7 4 7 11 12 16 15 15 13 10 11 10 11 12 12 12 10 9 11 7 9 10 10 12 13 14 14 14 14 14 14 14 14 12 13 14
2 2 3 2 3 1 2 9 11 3 4 7 4 4 7 11 9 13 16 14 16 14 12 11 9 11 13 13 12 10 11 8 6 8 9 9 10 12 14 13 13 14 13 14 14 13 11 12 12
1 2 3 2 3 3 2 10 7 5 7 9 7 10 6 9 10 17 14 13 12 12 12 11 11 11 14 13 12 11 8 6 6 6 7 9 9 12 13 12 12 13 13 13 13 12 11 10 11
2 3 3 3 3 2 4 9 5 8 8 3 13 6 7 14 13 16 15 13 11 10 12 13 12 13 13 13 12 10 7 6 4 7 7 9 10 11 11 11 11 11 12 12 11 10 10 8 6
2 2 3 2 4 4 6 6 6 12 3 14 6 6 6 21 19 19 15 16 15 11 13 13 12 12 13 13 12 9 6 5 4 7 8 9 10 10 10 10 10 10 10 10 10 8 7 6 3
2 3 2 3 4 3 8 4 7 6 12 9 9 6 4 22 24 23 21 20 19 16 14 15 13 13 13 14 13 11 7 6 6 7 9 9 8 9 9 9 9 9 9 9 8 6 5 4 1
3 3 6 2 4 4 8 7 12 7 8 5 7 9 11 23 27 29 27 26 23 21 17 16 15 14 13 12 13 12 11 8 6 7 8 9 8 8 8 8 8 7 8 7 5 4 3 2 0
4 4 3 2 2 6 6 4 4 10 3 10 13 13 19 25 27 29 27 27 24 20 19 18 16 16 14 13 13 13 12 11 9 8 8 8 8 8 8 7 7 6 5 5 4 3 2 1 1
3 6 6 3 2 2 3 5 4 12 5 6 8 9 19 26 29 30 31 27 24 24 22 19 19 18 17 15 14 13 14 14 12 10 10 10 10 10 9 9 8 7 6 5 4 4 3 2 2
4 3 5 7 8 6 5 8 6 11 7 5 10 14 20 23 28 28 28 27 25 25 25 23 21 20 19 18 17 16 16 16 14 12 11 11 11 10 10 9 8 7 6 6 5 5 4 3 2
2 11 10 5 4 5 5 5 3 5 10 14 12 16 21 25 24 29 30 31 30 26 27 26 25 22 20 19 17 18 17 17 16 14 13 12 12 11 9 9 9 8 8 7 6 5 5 4 4
5 1 0 7 5 3 4 5 6 8 10 14 14 18 23 25 26 29 28 30 32 30 28 29 27 24 22 20 17 17 18 19 19 16 15 15 14 12 12 13 12 10 9 8 7 7 6 5 5
3 2 3 2 7 3 8 8 7 16 12 14 16 20 24 27 27 28 29 28 32 32 33 31 29 27 25 24 21 19 20 20 20 19 18 17 16 15 15 14 12 11 11 10 10 10 9 8 7
4 4 5 2 12 3 5 5 11 16 17 19 22 25 26 28 28 29 30 28 30 33 35 34 32 31 28 26 24 21 21 21 21 21 20 19 18 18 16 15 13 14 13 12 12 12 11 9 8
5 3 3 6 6 5 5 8 6 6 10 21 26 27 28 30 30 28 30 29 29 32 31 32 33 33 31 29 28 26 25 24 24 23 22 21 20 20 19 18 16 16 16 15 13 13 13 11 12
5 4 5 3 3 4 7 12 10 25 16 18 16 24 31 34 31 30 27 29 29 33 33 33 32 35 35 35 34 32 32 28 26 27 25 24 24 23 22 21 19 20 19 17 15 15 16 15 14
3 2 3 4 3 4 7 14 10 13 19 27 28 27 25 32 35 33 30 30 31 34 34 34 34 33 35 37 38 37 35 32 28 27 27 27 26 25 24 23 22 21 21 20 20 20 19 19 18
4 6 3 5 2 3 3 12 11 8 26 32 32 31 32 34 35 34 35 35 33 33 37 36 34 35 34 34 38 39 38 37 35 33 31 29 29 27 27 26 24 24 24 23 21 20 22 21 23
11 7 5 4 3 5 5 7 7 6 14 12 31 37 38 39 39 39 37 35 38 35 33 35 35 35 34 34 37 39 42 43 39 37 32 30 31 30 30 29 27 26 26 26 24 22 22 23 23
6 7 11 1 3 5 4 4 5 2 7 10 23 34 42 44 42 41 41 39 33 37 35 33 35 36 36 36 38 38 40 44 42 41 38 35 33 34 32 31 30 30 30 28 27 27 27 27 28
6 5 2 3 2 10 10 9 6 8 7 8 18 33 35 33 34 37 41 39 39 36 41 37 36 36 37 36 38 41 41 40 43 43 42 39 37 36 36 34 34 33 33 32 31 30 31 31 32
8 9 3 6 7 11 6 8 20 6 9 11 17 31 34 29 31 26 32 38 38 39 39 41 39 37 35 35 38 41 42 40 41 41 40 40 40 39 37 36 36 36 36 35 34 35 35 35 37
25 17 5 8 6 5 4 10 7 13 30 33 34 31 28 26 25 25 25 28 38 36 36 38 40 38 37 36 36 38 40 41 40 41 40 39 39 38 37 36 35 36 37 37 37 38 39 40 40
9 14 8 5 2 2 5 8 7 10 11 19 26 34 39 25 20 20 22 23 25 34 35 36 38 38 38 38 37 37 38 39 40 39 39 38 38 37 36 35 34 33 33 35 38 40 41 43 44
13 14 5 1 4 6 6 6 10 6 21 19 13 26 36 34 19 14 13 13 16 22 30 33 35 35 34 35 38 38 37 36 36 37 36 37 37 37 36 35 34 32 32 33 35 37 39 41 44
11 15 8 6 5 5 3 8 8 19 16 18 20 29 28 33 29 21 17 16 17 18 20 25 27 27 28 29 31 33 35 35 35 36 36 38 38 38 38 37 35 34 33 32 34 35 38 39 39
19 13 20 7 13 4 2 11 5 10 8 4 13 20 19 21 24 23 19 16 15 14 13 15 19 22 23 25 27 29 29 31 33 35 35 34 35 36 35 34 33 32 31 31 34 35 35 39 40
Wind_Direction
301 308 326 341 52 62 29 217 284 127 70 46 105 117 129 66 109 192 152 159 160 173 167 163 157 158 150 137 126 116 103 70 80 92 98 102 95 95 92 97 94 94 92 96 98 98 89 84 86
296 308 327 69 87 71 279 271 167 187 134 108 84 84 61 86 117 139 150 154 149 168 168 165 165 167 162 151 137 134 108 96 85 81 114 104 100 95 98 100 98 94 96 99 102 101 94 87 82
305 329 353 85 115 159 188 205 160 128 153 97 109 83 86 118 122 147 157 153 164 170 168 165 167 166 167 164 158 149 147 136 131 109 115 107 105 102 101 100 101 99 100 104 109 106 101 92 89
334 340 63 84 182 215 198 170 174 142 126 161 125 75 89 140 156 162 159 168 175 177 172 164 164 169 170 166 164 167 174 166 166 111 105 114 109 106 106 101 104 104 106 110 109 110 105 102 97
336 28 56 75 266 262 213 165 166 138 124 135 142 141 129 154 162 164 161 175 180 182 172 158 162 161 157 163 171 174 177 180 177 116 112 116 114 108 108 108 109 109 110 111 113 111 104 97 93
314 80 70 222 262 282 187 167 166 162 147 146 108 128 146 180 179 161 169 177 186 191 165 166 163 161 157 161 167 163 179 174 145 120 126 121 115 116 119 117 118 117 116 117 118 114 106 96 94
90 91 192 173 254 245 205 185 184 167 150 169 145 126 169 178 169 166 181 186 196 193 181 174 168 166 166 162 166 169 161 174 162 143 137 133 129 126 127 124 121 120 121 122 122 119 115 106 92
57 75 142 242 212 213 173 144 182 164 131 148 167 177 188 181 169 180 191 195 198 206 193 188 179 176 174 173 179 177 169 162 163 155 150 149 141 136 134 129 128 129 131 131 128 124 112 107 95
123 60 194 209 179 217 165 139 158 163 153 179 189 183 198 179 173 187 198 197 200 202 202 199 193 185 184 182 180 185 185 185 178 171 163 156 149 144 141 138 138 142 144 139 133 126 120 111 72
136 131 218 245 206 197 184 176 161 156 162 189 182 186 180 181 181 189 202 198 202 206 208 205 200 196 196 197 195 195 194 193 190 179 170 164 161 157 156 156 157 160 159 156 154 153 142 124 16
172 177 239 269 119 166 156 182 184 148 228 213 200 190 181 185 188 195 200 204 205 210 215 213 208 205 205 206 205 205 205 200 198 188 181 176 176 177 176 183 185 183 179 176 177 178 174 206 329
169 241 240 283 68 111 173 178 207 189 223 252 201 215 191 194 195 199 203 202 208 214 220 218 215 213 210 211 215 215 213 213 211 202 194 188 188 188 192 197 201 205 207 210 210 213 216 248 309
160 224 254 263 263 247 204 215 226 232 223 219 200 205 203 203 204 206 208 205 210 214 218 222 216 213 213 214 216 218 220 223 223 216 209 203 202 201 207 212 215 221 227 230 228 235 235 254 329
205 210 233 276 260 220 191 228 201 243 215 222 220 215 211 211 211 210 210 211 213 214 218 223 224 215 214 214 216 221 223 226 228 221 218 217 217 216 223 233 235 239 245 247 247 248 252 251 289
229 56 238 236 226 236 169 285 228 225 217 218 213 215 217 219 217 218 218 215 217 216 218 226 230 218 217 218 220 224 225 226 229 228 224 224 225 225 226 231 237 242 249 252 256 255 254 269 271
145 134 229 237 169 231 170 253 244 225 207 211 224 223 224 225 227 225 224 226 222 224 223 227 233 230 222 223 225 228 227 229 231 231 229 229 230 231 234 238 244 246 253 261 262 257 251 256 274
353 191 181 253 200 131 192 253 238 236 219 228 236 236 229 230 229 229 228 230 229 228 229 230 232 231 231 230 229 232 234 236 236 234 233 233 235 236 241 246 248 251 255 261 268 257 248 249 271
188 181 193 194 210 200 234 252 279 220 218 232 244 243 239 235 239 237 234 234 232 229 230 231 233 229 232 235 236 235 237 238 239 239 239 237 239 242 246 248 248 250 256 259 263 258 245 247 253
152 169 175 219 263 196 237 250 247 255 256 254 255 243 242 242 245 242 240 236 234 227 226 224 228 228 231 234 235 236 238 240 240 240 239 240 241 241 245 250 251 252 256 263 263 261 248 244 252
160 206 219 296 271 174 283 268 242 244 253 256 258 250 246 246 248 247 241 235 234 231 227 227 226 228 231 235 238 238 241 244 246 249 245 243 243 245 248 251 254 256 258 257 252 254 252 241 249
196 177 189 206 317 220 279 272 264 241 243 253 254 251 252 250 249 250 247 240 236 235 233 229 229 227 233 237 239 239 242 245 247 247 247 244 245 246 247 252 254 254 254 254 254 253 250 244 246
228 170 205 219 166 226 160 280 247 237 244 236 248 247 248 248 249 251 247 245 236 239 239 237 236 233 232 234 238 241 243 245 248 250 252 251 248 248 249 249 251 251 252 253 252 249 247 245 246
206 159 209 245 276 339 217 275 268 254 256 246 246 247 250 249 248 248 246 242 242 240 241 241 238 238 237 236 239 243 246 248 252 253 254 253 253 251 251 252 253 252 251 254 253 250 246 248 251
130 93 91 73 131 255 222 216 205 213 207 241 252 256 256 253 253 253 247 247 245 245 240 240 238 241 240 239 241 244 247 248 251 252 254 256 256 255 255 254 254 255 255 256 257 255 252 252 255
174 159 186 199 211 244 182 199 245 231 237 241 252 252 257 258 256 252 243 243 241 242 241 241 239 240 243 244 245 245 248 251 254 256 258 260 261 261 261 260 259 259 259 259 259 257 256 255 255
197 185 170 194 204 258 92 232 244 211 233 247 254 263 264 261 256 249 247 242 239 242 241 242 242 244 244 247 250 250 250 252 255 257 258 262 264 268 270 271 267 267 266 266 264 262 260 258 258
188 208 187 99 64 51 217 282 288 250 262 258 252 250 251 252 242 245 243 237 236 239 243 244 245 247 248 248 252 254 253 253 256 259 263 265 268 270 273 274 274 272 271 270 269 268 267 265 262
184 179 183 140 165 245 255 264 236 233 223 231 244 233 243 239 244 238 225 224 230 237 240 243 246 249 253 254 253 255 258 260 263 265 267 270 272 274 275 277 278 278 277 275 271 270 268 267 270
188 194 197 182 173 196 258 254 209 217 216 232 233 234 242 233 238 237 230 232 235 239 237 235 235 239 245 250 251 254 256 259 262 263 265 267 271 272 273 274 275 276 275 274 273 269 272 273 273
208 205 203 212 218 222 178 258 242 235 251 278 237 236 228 222 220 219 221 222 226 227 223 224 229 237 244 249 252 254 257 259 261 263 265 267 268 271 272 274 275 277 277 278 279 274 275 271 271